TimeCEST,TemperatureF,Dew PointF,Humidity,Sea Level PressureIn,VisibilityMPH,Wind Direction,Wind SpeedMPH,Gust SpeedMPH,PrecipitationIn,Events,Conditions,WindDirDegrees,DateUTC
12:25 AM,46.4,37.4,71,30.24,6.2,NE,12.7,-,N/A,,Unknown,40,2013-04-30 22:25:00
12:55 AM,46.4,37.4,71,30.24,6.2,NNE,12.7,-,N/A,,Unknown,30,2013-04-30 22:55:00
1:25 AM,44.6,37.4,76,30.24,6.2,NE,11.5,-,N/A,,Mostly Cloudy,40,2013-04-30 23:25:00
1:55 AM,44.6,37.4,76,30.24,6.2,NE,10.4,-,N/A,,Mostly Cloudy,40,2013-04-30 23:55:00
2:00 AM,44,38,71,30.27,17,NNE,11.2,,,,Partly Cloudy,30,2013-05-01 00:00:00
2:25 AM,42.8,37.4,81,30.24,6.2,NE,10.4,-,N/A,,Overcast,40,2013-05-01 00:25:00
2:55 AM,44.6,37.4,76,30.24,6.2,NE,10.4,-,N/A,,Partly Cloudy,40,2013-05-01 00:55:00
3:25 AM,42.8,37.4,81,30.24,6.2,NE,10.4,-,N/A,,Unknown,50,2013-05-01 01:25:00
3:55 AM,42.8,37.4,81,30.24,6.2,NE,10.4,-,N/A,,Partly Cloudy,40,2013-05-01 01:55:00
4:25 AM,41.0,37.4,87,30.24,6.2,NE,9.2,-,N/A,,Unknown,40,2013-05-01 02:25:00
4:55 AM,41.0,37.4,87,30.24,6.2,NE,10.4,-,N/A,,Unknown,40,2013-05-01 02:55:00
5:00 AM,41,37,79,30.26,13,NE,8.9,,,,Scattered Clouds,50,2013-05-01 03:00:00
5:25 AM,41.0,35.6,81,30.24,6.2,NE,9.2,-,N/A,,Unknown,50,2013-05-01 03:25:00
5:55 AM,41.0,37.4,87,30.24,6.2,NE,8.1,-,N/A,,Unknown,40,2013-05-01 03:55:00
6:25 AM,39.2,35.6,87,30.24,6.2,NE,8.1,-,N/A,,Unknown,50,2013-05-01 04:25:00
6:55 AM,41.0,35.6,81,30.24,6.2,NE,8.1,-,N/A,,Unknown,50,2013-05-01 04:55:00
7:25 AM,41.0,35.6,81,30.24,6.2,NE,9.2,-,N/A,,Unknown,50,2013-05-01 05:25:00
7:55 AM,42.8,37.4,81,30.24,6.2,NE,8.1,-,N/A,,Partly Cloudy,50,2013-05-01 05:55:00
8:00 AM,43,37,73,30.25,11,NE,8.9,,,,Partly Cloudy,50,2013-05-01 06:00:00
8:25 AM,44.6,37.4,76,30.24,6.2,NE,10.4,-,N/A,,Partly Cloudy,50,2013-05-01 06:25:00
8:55 AM,46.4,39.2,76,30.24,6.2,ENE,10.4,-,N/A,,Unknown,60,2013-05-01 06:55:00
9:25 AM,48.2,37.4,66,30.24,6.2,ENE,9.2,-,N/A,,Unknown,60,2013-05-01 07:25:00
9:55 AM,50.0,39.2,66,30.24,6.2,NE,10.4,-,N/A,,Partly Cloudy,50,2013-05-01 07:55:00
10:25 AM,51.8,39.2,62,30.21,6.2,NE,10.4,-,N/A,,Partly Cloudy,50,2013-05-01 08:25:00
10:55 AM,53.6,41.0,62,30.21,6.2,NE,9.2,-,N/A,,Partly Cloudy,50,2013-05-01 08:55:00
11:00 AM,54,40,48,30.23,12,NE,8.9,,,,Scattered Clouds,50,2013-05-01 09:00:00
11:25 AM,55.4,41.0,58,30.21,6.2,ENE,9.2,-,N/A,,Partly Cloudy,60,2013-05-01 09:25:00
11:55 AM,57.2,41.0,55,30.21,6.2,ENE,11.5,-,N/A,,Unknown,60,2013-05-01 09:55:00
12:25 PM,59.0,41.0,51,30.18,6.2,NE,10.4,-,N/A,,Unknown,50,2013-05-01 10:25:00
12:55 PM,60.8,41.0,48,30.18,6.2,NE,12.7,-,N/A,,Unknown,40,2013-05-01 10:55:00
1:06 PM,60.8,41.0,48,30.18,6.2,ENE,13.8,-,N/A,,Unknown,60,2013-05-01 11:06:00
1:08 PM,60.8,41.0,48,30.18,6.2,ENE,13.8,-,N/A,,Unknown,60,2013-05-01 11:08:00
1:25 PM,60.8,41.0,48,30.15,6.2,ENE,10.4,-,N/A,,Scattered Clouds,60,2013-05-01 11:25:00
1:55 PM,62.6,42.8,48,30.15,6.2,NE,11.5,-,N/A,,Unknown,50,2013-05-01 11:55:00
2:00 PM,62,39,31,30.16,16,NE,11.2,,,,Partly Cloudy,50,2013-05-01 12:00:00
2:25 PM,62.6,41.0,45,30.12,6.2,NE,13.8,-,N/A,,Unknown,40,2013-05-01 12:25:00
2:55 PM,62.6,39.2,42,30.12,6.2,ENE,11.5,-,N/A,,Mostly Cloudy,70,2013-05-01 12:55:00
3:25 PM,62.6,41.0,45,30.12,6.2,NE,15.0,-,N/A,,Scattered Clouds,40,2013-05-01 13:25:00
3:55 PM,64.4,42.8,45,30.12,6.2,NE,11.5,23.0,N/A,,Partly Cloudy,40,2013-05-01 13:55:00
4:25 PM,64.4,41.0,42,30.09,6.2,ENE,11.5,-,N/A,,Partly Cloudy,60,2013-05-01 14:25:00
4:55 PM,64.4,41.0,42,30.09,6.2,ENE,11.5,-,N/A,,Scattered Clouds,60,2013-05-01 14:55:00
5:00 PM,64,41,32,30.12,16,ENE,8.9,,,,Mostly Cloudy,70,2013-05-01 15:00:00
5:25 PM,62.6,41.0,45,30.09,6.2,ENE,8.1,-,N/A,,Overcast,60,2013-05-01 15:25:00
5:55 PM,64.4,42.8,45,30.09,6.2,ENE,11.5,-,N/A,,Mostly Cloudy,60,2013-05-01 15:55:00
6:25 PM,62.6,41.0,45,30.09,6.2,NE,11.5,-,N/A,,Mostly Cloudy,40,2013-05-01 16:25:00
6:55 PM,62.6,42.8,48,30.09,6.2,NE,10.4,-,N/A,,Mostly Cloudy,50,2013-05-01 16:55:00
7:25 PM,62.6,41.0,45,30.09,6.2,NE,10.4,-,N/A,,Mostly Cloudy,50,2013-05-01 17:25:00
7:55 PM,62.6,42.8,48,30.09,6.2,NE,12.7,-,N/A,,Mostly Cloudy,40,2013-05-01 17:55:00
8:00 PM,62,42,36,30.11,22,NE,11.2,,,,Partly Cloudy,40,2013-05-01 18:00:00
8:25 PM,60.8,42.8,52,30.09,6.2,NE,10.4,-,N/A,,Overcast,40,2013-05-01 18:25:00
8:55 PM,60.8,41.0,48,30.09,6.2,ENE,9.2,-,N/A,,Overcast,60,2013-05-01 18:55:00
9:25 PM,60.8,41.0,48,30.09,6.2,NE,9.2,-,N/A,,Overcast,50,2013-05-01 19:25:00
9:55 PM,59.0,42.8,55,30.09,6.2,NNE,10.4,-,N/A,,Overcast,30,2013-05-01 19:55:00
10:25 PM,59.0,42.8,55,30.12,6.2,NNE,8.1,-,N/A,,Overcast,30,2013-05-01 20:25:00
10:55 PM,57.2,42.8,59,30.12,6.2,NNE,8.1,-,N/A,,Overcast,30,2013-05-01 20:55:00
11:00 PM,58,42,45,30.13,22,NNE,8.9,,,Rain,Rain,30,2013-05-01 21:00:00
11:03 PM,57.2,42.8,59,30.12,6.2,NNE,9.2,-,N/A,,Overcast,30,2013-05-01 21:03:00
11:25 PM,57.2,42.8,59,30.12,6.2,North,10.4,-,N/A,,Overcast,10,2013-05-01 21:25:00
11:55 PM,55.4,42.8,63,30.12,6.2,North,9.2,-,N/A,,Overcast,10,2013-05-01 21:55:00